Location: Peebles
(55.6412°N, 3.1714°W)
Time: 15:03:15
(UTC+01:00)

Meteor 1-22 Rocket - Pass Details

Date: 26 September 2021
Orbit: 787 x 940 km, 81.2° (Epoch: 17 October)

Event Time Altitude Azimuth Distance (km) Brightness Sun altitude
Rises 21:05:35 0° 180° (S) 3,389 7.1 -18.0°
Reaches altitude 10° 21:07:58 10° 177° (S) 2,480 6.4 -18.3°
Maximum altitude 21:13:32 63° 98° (E) 981 4.2 -19.0°
Drops below altitude 10° 21:19:22 10° 19° (NNE) 2,599 6.8 -19.7°
Sets 21:21:54 0° 16° (NNE) 3,564 7.6 -20.0°
